Home > Weather > Seoul > Past weeks

Flag for South Korea Past Weather in Seoul, South Korea — Yesterday and Last 2 Weeks

Now
84 °F

Sunny.


Feels Like: 83 °F
Forecast: 63 / 86 °F
Wind: 15 mph from West

Location: Seoul / Kimp'O International Airport

Current Time: Jun 26, 2016 at 5:21:56 PM

Latest Report: Jun 26, 2016 at 5:00 PM


Visibility: 10 mi

Pressure: 29.77 "Hg

Humidity: 40%

Dew Point: 57 °F

Location of SeoulLocation

Past Weather in Seoul — Graph

°F

Seoul Temperature Yesterday

Maximum temperature yesterday: 81 °F (at 1:00 PM)
Minimum temperature yesterday: 66 °F (at 4:00 AM)
Average temperature yesterday: 73 °F

High & Low Weather Summary for the Past Weeks

 TemperatureHumidityPressure
High86 °F (Jun 21, 12:00 PM)94% (Jun 12, 1:00 AM)29.89 "Hg (Jun 12, 1:00 AM)
Low63 °F (Jun 15, 6:56 AM)29% (Jun 26, 1:00 PM)29.45 "Hg (Jun 24, 1:00 PM)
Average73 °F69%29.68 "Hg
* Reported Jun 11 4:00 PM — Jun 26 4:00 PM, Seoul, Weather by CustomWeather, © 2016

Note: Actual official high and low records may vary slightly from our data, if they occured in-between our weather recording intervals... More about our weather records

Advertising

Seoul Weather History for the Previous 24 Hours

Scroll right to see more
 ConditionsComfort  
Time TempWeatherWind HumidityBarometerVisibility
4:00 PM
Sun, Jun 26
84 °FSunny.12 mph33%29.77 "Hg10 mi
3:00 PM84 °FScattered clouds.14 mph37%29.77 "HgN/A
2:00 PM84 °FPassing clouds.7 mph35%29.77 "HgN/A
1:00 PM86 °FPassing clouds.8 mph29%29.77 "HgN/A
12:00 PM82 °FPassing clouds.9 mph37%29.77 "HgN/A
11:00 AM82 °FPassing clouds.10 mph40%29.80 "HgN/A
10:00 AM79 °FPassing clouds.8 mph45%29.80 "HgN/A
9:00 AM77 °FPassing clouds.5 mph54%29.80 "HgN/A
8:00 AM73 °FPassing clouds.5 mph65%29.80 "HgN/A
7:00 AM73 °FClear.1 mph65%29.80 "Hg5 mi
6:00 AM64 °FSunny.5 mph83%29.77 "Hg10 mi
5:00 AM64 °FClear.1 mph78%29.77 "Hg10 mi
4:00 AM68 °FClear.5 mph73%29.74 "Hg10 mi
3:00 AM66 °FClear.2 mph73%29.74 "Hg10 mi
2:00 AM68 °FPassing clouds.3 mph69%29.74 "HgN/A
1:00 AM68 °FClear.1 mph73%29.74 "Hg10 mi
12:00 AM70 °FClear.6 mph64%29.74 "Hg10 mi
11:00 PM
Sat, Jun 25
72 °FPassing clouds.7 mph61%29.71 "HgN/A
10:00 PM70 °FPassing clouds.1 mph64%29.68 "HgN/A
9:00 PM73 °FPassing clouds.5 mph57%29.68 "HgN/A
8:00 PM75 °FPassing clouds.6 mph47%29.65 "HgN/A
7:00 PM77 °FPassing clouds.7 mph54%29.62 "HgN/A
6:00 PM77 °FPassing clouds.9 mph51%29.59 "HgN/A
5:00 PM79 °FPassing clouds.12 mph39%29.59 "HgN/A
Weather by CustomWeather, © 2016

See weather overviewHow to use our weather pages